Wind_Speed
80 82 86 88 87 89 90 89 90 91 94 91 92 91 98 97 96 94 90 93 95 95 97 97 99 95 90 84 81 81 79 78 80 81 81 80 78 73 69 66 62 63 55 44
81 79 85 93 96 97 95 96 98 96 100 97 98 97 100 102 98 95 96 94 93 95 93 95 97 96 95 89 86 84 82 81 83 81 80 78 79 69 70 67 63 61 59 54
89 93 94 101 99 101 100 102 106 106 101 102 104 101 102 108 101 98 97 97 96 93 93 96 99 98 95 91 84 82 79 82 81 76 73 72 71 61 60 64 62 60 60 55
97 100 98 100 106 106 103 108 110 109 108 108 109 106 107 106 101 98 99 98 95 92 90 89 95 93 92 90 81 76 74 72 75 71 71 68 68 64 64 61 61 60 58 55
103 103 109 109 111 111 113 118 117 115 113 115 113 116 104 102 98 97 92 91 94 92 89 86 83 82 83 79 73 69 67 62 62 63 63 64 61 60 60 59 59 61 59 54
110 107 109 109 116 116 116 116 117 119 117 117 114 114 97 98 97 91 84 84 87 87 86 80 77 75 71 67 63 58 58 58 54 57 56 56 55 56 56 55 56 54 55 51
111 113 112 109 111 114 117 119 122 124 124 119 111 107 101 93 88 82 82 81 81 79 76 72 66 65 60 56 54 51 51 52 52 49 51 45 46 49 50 48 46 47 50 49
120 116 114 113 116 118 119 121 126 130 122 114 109 102 95 87 83 79 76 73 72 71 65 65 58 59 55 52 52 50 47 44 44 45 46 43 40 38 34 34 31 41 45 48
123 119 116 118 119 123 125 125 123 129 122 114 102 93 83 81 79 76 75 71 64 67 63 60 59 54 56 52 51 47 42 40 38 39 41 41 40 37 39 43 33 37 41 46
123 125 122 124 127 125 128 125 122 120 116 106 92 82 79 79 78 77 78 70 63 69 65 58 58 51 54 57 51 45 40 38 37 35 34 41 43 47 48 54 44 37 37 39
127 125 123 125 124 123 120 118 114 112 103 97 89 76 74 75 75 74 73 68 59 65 67 58 56 51 58 61 52 42 41 39 36 36 31 46 46 51 50 55 45 40 34 36
127 126 123 121 118 114 110 107 105 100 95 85 81 67 69 74 70 68 68 63 58 63 67 58 56 52 57 61 53 46 42 38 41 45 47 59 57 57 53 53 46 38 42 36
124 119 117 114 107 101 98 97 97 88 85 80 74 68 68 66 61 57 59 61 56 56 62 59 55 52 55 57 51 50 40 35 40 49 58 64 63 60 59 53 47 45 44 36
115 111 109 106 98 94 89 88 87 80 76 70 71 64 65 58 51 54 58 59 56 50 57 56 53 49 51 50 48 50 41 40 47 54 64 68 67 65 64 56 49 45 37 44
108 105 102 98 94 88 84 83 76 73 69 66 67 61 55 53 48 51 54 51 48 46 56 57 52 46 47 45 45 44 43 46 56 58 65 71 71 69 62 54 49 37 47 40
100 98 93 90 86 81 79 73 69 67 63 64 61 53 47 48 47 50 51 45 42 43 53 47 42 41 41 42 42 44 45 47 55 59 66 74 73 68 60 58 57 49 43 36
91 87 85 80 77 74 71 67 65 62 61 54 50 44 43 47 44 41 45 37 41 44 40 35 37 37 41 40 43 44 48 52 56 61 68 71 67 59 58 55 55 43 39 36
83 80 76 73 69 67 63 61 60 57 56 44 45 39 40 41 38 36 38 35 35 32 28 34 36 39 40 43 45 47 52 54 57 60 65 64 61 62 62 58 50 40 37 35
77 73 68 64 63 61 58 55 53 50 51 38 37 32 36 36 34 31 32 26 24 24 27 32 35 37 42 45 49 53 58 58 59 56 56 58 60 57 55 48 48 42 39 34
70 66 60 58 57 55 50 47 45 44 44 34 29 29 32 30 29 25 23 21 20 22 24 29 34 40 45 51 54 63 64 64 58 61 54 56 55 53 50 46 48 46 39 34
62 58 55 51 50 50 44 42 42 42 34 28 25 29 25 25 21 20 22 21 21 24 28 32 37 45 50 57 63 65 68 75 61 55 56 57 53 53 47 46 50 44 36 37
55 53 47 44 42 42 35 42 40 34 26 21 24 22 21 20 18 21 21 19 27 30 31 36 41 43 54 59 66 66 73 70 63 58 60 63 56 53 52 48 46 40 41 37
48 47 43 39 36 27 32 42 38 26 22 20 21 18 18 19 21 23 23 26 28 31 37 41 45 52 54 56 65 67 72 66 64 61 65 64 61 56 48 48 45 43 41 36
45 44 39 35 25 21 30 40 34 21 19 19 16 19 20 22 24 25 28 30 33 36 42 44 48 51 51 58 63 60 59 61 63 59 68 63 63 54 45 50 46 47 41 37
44 40 36 27 18 21 28 38 30 18 17 16 17 22 24 26 27 30 33 37 40 44 50 55 57 59 61 62 60 52 51 66 65 59 59 58 58 53 51 50 50 46 40 39
42 33 35 20 14 20 27 34 24 15 17 16 21 25 27 31 34 37 41 45 50 57 63 65 66 63 60 53 53 53 54 73 61 58 56 58 53 53 53 51 52 45 43 38
Wind_Direction
295 296 294 296 297 300 300 302 302 301 301 302 298 298 298 300 295 291 289 287 286 284 283 282 282 284 285 284 285 283 282 277 273 272 270 270 272 275 269 271 261 263 263 269
298 301 300 304 302 302 299 298 301 301 298 300 297 298 298 298 297 294 292 290 288 286 283 282 281 282 283 283 283 284 279 276 273 271 270 267 270 268 262 259 258 258 260 261
300 296 294 297 302 301 299 297 299 301 300 300 299 296 296 298 296 296 295 291 287 285 284 282 281 282 284 284 283 279 275 272 268 264 263 260 261 259 254 248 252 253 256 256
302 301 297 298 297 297 298 297 297 297 298 299 298 298 298 298 298 297 294 292 289 286 283 282 283 283 283 280 278 276 271 266 263 262 258 253 251 247 243 243 246 250 252 254
300 298 297 294 296 296 296 295 295 296 295 297 297 299 299 299 297 294 292 290 288 286 281 281 282 280 279 278 276 273 266 262 257 255 253 249 244 240 238 236 242 245 248 251
296 299 294 293 291 294 293 293 293 293 294 295 297 299 303 298 295 293 289 285 283 284 285 284 281 279 277 276 274 266 261 258 251 250 247 246 241 239 237 236 239 241 246 247
302 299 295 294 292 291 292 293 294 293 296 298 299 300 301 297 294 289 285 284 282 281 283 282 280 277 274 271 266 258 255 253 250 245 243 243 242 243 234 238 240 243 245 238
300 299 296 293 292 293 291 292 293 293 295 297 299 300 299 295 291 287 285 281 280 280 279 278 276 276 272 265 259 256 253 249 245 243 235 227 222 225 236 243 242 245 239 236
297 296 294 293 292 292 292 293 293 295 299 299 299 298 297 293 288 284 280 278 277 275 273 268 268 265 269 259 256 252 249 246 238 235 232 216 204 204 201 224 220 243 239 239
296 294 293 292 293 294 294 294 295 295 297 298 298 297 296 288 284 279 278 280 277 273 269 265 261 256 255 258 249 248 243 238 231 226 222 202 194 197 210 212 213 229 236 237
292 292 291 291 292 293 294 294 294 295 297 297 295 295 289 283 279 278 279 277 273 269 268 262 257 252 248 255 252 243 240 233 219 213 196 197 194 199 203 209 212 220 227 231
291 290 291 290 293 292 294 294 293 294 294 293 290 291 283 276 277 276 276 274 268 264 266 263 258 249 248 250 252 245 237 227 216 208 190 187 191 194 197 199 207 213 226 226
293 293 292 292 294 294 292 292 292 292 292 290 291 285 280 279 281 280 273 269 264 262 263 260 254 252 246 246 247 244 232 213 209 201 190 190 190 192 193 199 200 213 220 230
293 293 293 294 295 294 293 291 291 292 289 290 286 285 282 284 278 271 267 267 266 261 258 257 252 245 242 242 240 240 228 192 192 198 194 194 190 195 195 195 196 203 219 223
293 292 293 294 295 294 294 292 293 291 291 289 286 285 287 283 278 270 266 264 261 250 252 250 247 241 237 234 228 228 221 200 191 197 196 195 196 197 194 199 193 197 220 216
292 293 294 295 294 294 293 293 292 290 289 286 285 288 284 278 273 267 267 265 260 251 246 248 243 234 231 224 217 213 216 202 195 193 198 199 199 197 193 196 203 201 210 214
293 294 295 293 293 293 292 291 290 288 285 286 288 281 275 272 268 268 268 263 253 250 249 243 235 223 216 209 203 200 207 195 191 193 198 199 200 191 193 195 202 201 206 210
293 294 293 293 292 291 290 289 288 287 286 288 280 279 275 272 270 266 261 255 251 246 236 226 219 209 198 195 192 189 195 188 187 193 198 199 199 196 198 202 205 198 200 203
293 293 292 292 290 289 288 288 288 289 284 283 280 277 271 269 267 261 254 249 242 224 210 211 203 193 187 184 178 178 187 187 180 188 195 192 192 196 198 204 201 193 194 201
292 291 291 289 287 288 288 288 285 277 279 285 283 271 266 265 262 257 252 238 223 209 202 201 188 184 177 177 173 177 182 175 176 190 189 187 185 186 180 189 194 190 197 199
288 287 287 287 287 285 288 283 277 278 285 287 273 263 262 254 253 247 236 217 206 198 192 187 183 182 172 174 173 177 178 180 185 177 176 174 177 178 186 189 186 190 193 193
286 284 282 282 281 282 282 275 272 278 284 273 262 258 250 242 236 228 212 197 187 189 182 177 177 172 174 176 175 174 179 182 177 175 176 172 177 180 180 182 185 190 189 193
280 278 279 278 276 277 269 270 274 283 276 261 252 244 232 226 212 200 186 182 180 177 179 173 171 169 174 179 174 176 182 182 183 177 180 176 181 178 175 177 181 191 186 189
275 275 277 274 272 263 261 268 273 278 261 249 235 224 215 211 195 179 180 175 172 175 168 160 161 161 166 173 173 178 180 179 175 177 180 184 185 181 179 182 184 184 183 188
270 272 275 274 267 255 256 262 269 264 247 230 208 211 204 194 180 174 175 169 170 166 163 156 159 163 168 170 172 175 177 178 183 179 175 178 177 178 183 183 183 182 181 187
268 271 272 274 262 250 251 259 261 245 231 213 199 203 196 183 172 174 174 167 165 159 158 160 160 165 170 170 170 175 177 180 179 175 173 167 173 180 181 180 180 181 183 184
Height
10780 10776 10768 10762 10754 10750 10744 10740 10735 10728 10721 10723 10718 10715 10704 10693 10686 10685 10682 10679 10676 10675 10672 10668 10667 10671 10677 10677 10677 10675 10675 10672 10675 10679 10684 10688 10693 10701 10704 10706 10712 10716 10721 10724
10761 10754 10745 10739 10733 10726 10720 10715 10709 10707 10696 10695 10691 10691 10679 10668 10661 10660 10654 10652 10650 10649 10646 10642 10640 10643 10647 10653 10655 10652 10651 10649 10647 10655 10658 10665 10671 10684 10688 10691 10695 10703 10708 10711
10743 10735 10728 10719 10709 10701 10695 10686 10682 10677 10673 10666 10665 10665 10656 10643 10636 10631 10624 10620 10620 10621 10620 10617 10612 10614 10617 10623 10629 10628 10628 10622 10622 10631 10637 10642 10653 10663 10665 10670 10680 10687 10693 10698
10719 10710 10704 10695 10685 10676 10672 10657 10654 10648 10644 10644 10638 10635 10633 10619 10613 10606 10594 10585 10584 10588 10592 10593 10584 10585 10588 10592 10598 10602 10599 10599 10595 10606 10611 10618 10627 10638 10646 10656 10665 10669 10678 10685
10692 10687 10680 10672 10660 10650 10645 10633 10625 10619 10613 10615 10613 10593 10613 10598 10589 10577 10570 10559 10550 10552 10556 10562 10564 10562 10560 10565 10571 10574 10574 10577 10577 10581 10588 10596 10608 10618 10628 10640 10647 10654 10664 10671
10672 10664 10654 10645 10634 10625 10615 10604 10593 10585 10584 10583 10582 10565 10587 10569 10556 10552 10545 10533 10525 10522 10522 10533 10536 10538 10540 10542 10545 10550 10552 10556 10562 10565 10571 10582 10596 10605 10615 10625 10634 10642 10651 10658
10643 10635 10627 10616 10603 10593 10584 10571 10559 10551 10550 10549 10551 10540 10542 10537 10530 10521 10513 10508 10501 10500 10504 10505 10509 10513 10518 10521 10523 10528 10534 10538 10543 10554 10561 10577 10591 10600 10608 10615 10624 10631 10639 10646
10609 10608 10596 10589 10578 10563 10555 10542 10527 10511 10520 10523 10519 10516 10512 10503 10495 10488 10486 10484 10480 10479 10487 10485 10490 10490 10497 10502 10506 10511 10517 10524 10531 10541 10552 10565 10582 10596 10609 10612 10615 10621 10628 10636
10571 10571 10563 10554 10542 10531 10522 10512 10500 10486 10484 10483 10494 10484 10485 10474 10462 10458 10455 10458 10465 10462 10468 10472 10475 10477 10477 10483 10489 10496 10504 10512 10521 10533 10544 10556 10572 10584 10597 10597 10604 10611 10618 10627
10543 10529 10531 10518 10509 10500 10489 10482 10475 10463 10455 10453 10459 10461 10454 10444 10434 10430 10429 10439 10445 10440 10445 10451 10456 10464 10463 10463 10474 10482 10491 10501 10512 10522 10536 10548 10558 10567 10578 10587 10592 10598 10609 10617
10507 10499 10495 10485 10479 10469 10459 10452 10445 10435 10432 10425 10426 10437 10428 10414 10407 10407 10411 10413 10421 10417 10419 10433 10438 10446 10445 10446 10459 10470 10479 10488 10500 10509 10523 10536 10545 10552 10561 10574 10580 10590 10600 10608
10471 10461 10457 10452 10447 10440 10431 10424 10416 10410 10406 10403 10397 10414 10401 10383 10387 10389 10389 10393 10397 10396 10396 10410 10417 10427 10429 10433 10444 10455 10465 10478 10486 10496 10507 10514 10524 10533 10546 10558 10570 10580 10592 10600
10438 10429 10422 10418 10417 10411 10406 10397 10389 10386 10380 10375 10372 10377 10366 10365 10370 10369 10364 10364 10373 10378 10378 10386 10396 10407 10415 10421 10432 10440 10455 10462 10474 10485 10494 10503 10513 10525 10535 10545 10558 10573 10583 10593
10407 10399 10393 10387 10385 10382 10377 10372 10364 10360 10354 10351 10344 10348 10339 10347 10350 10344 10340 10343 10349 10359 10356 10364 10375 10388 10397 10409 10418 10427 10442 10450 10463 10473 10482 10493 10503 10514 10523 10537 10552 10565 10578 10586
10378 10372 10363 10360 10358 10352 10347 10343 10340 10333 10330 10327 10321 10324 10324 10322 10325 10321 10319 10324 10332 10337 10335 10342 10356 10369 10379 10392 10403 10415 10428 10440 10448 10463 10475 10486 10494 10503 10519 10536 10546 10559 10569 10580
10352 10344 10339 10334 10331 10326 10321 10320 10316 10311 10310 10305 10305 10305 10307 10303 10303 10300 10302 10308 10314 10316 10317 10331 10342 10351 10363 10376 10388 10403 10417 10429 10438 10451 10466 10477 10487 10501 10517 10529 10539 10551 10564 10575
10327 10321 10316 10313 10308 10303 10299 10296 10292 10291 10287 10291 10289 10290 10289 10282 10285 10290 10288 10295 10297 10300 10309 10320 10327 10336 10347 10360 10375 10392 10407 10419 10431 10445 10460 10472 10484 10501 10514 10525 10535 10548 10561 10570
10302 10298 10294 10291 10286 10281 10280 10275 10271 10271 10266 10275 10271 10273 10269 10268 10272 10274 10275 10279 10283 10291 10299 10304 10312 10322 10334 10348 10364 10381 10399 10411 10423 10441 10454 10468 10482 10495 10509 10521 10533 10546 10557 10566
10279 10276 10274 10271 10264 10263 10261 10256 10256 10254 10249 10259 10257 10258 10255 10256 10259 10262 10263 10268 10274 10281 10287 10295 10303 10314 10325 10338 10354 10372 10392 10405 10420 10434 10448 10463 10477 10491 10504 10516 10529 10542 10553 10562
10259 10257 10255 10250 10246 10243 10242 10242 10241 10240 10239 10244 10244 10244 10243 10246 10248 10252 10255 10260 10267 10273 10281 10290 10297 10307 10318 10331 10347 10367 10383 10401 10414 10423 10439 10457 10472 10487 10500 10513 10525 10538 10549 10557
10239 10237 10235 10234 10231 10226 10231 10228 10227 10226 10231 10232 10233 10232 10235 10237 10241 10245 10249 10255 10263 10268 10273 10282 10292 10304 10313 10324 10340 10359 10377 10391 10406 10422 10439 10453 10470 10484 10496 10509 10522 10535 10545 10553
10223 10220 10222 10221 10221 10219 10218 10213 10215 10220 10222 10224 10224 10225 10227 10230 10235 10240 10247 10255 10258 10264 10272 10280 10291 10303 10314 10324 10340 10358 10373 10389 10406 10421 10437 10451 10467 10480 10494 10507 10520 10531 10541 10550
10207 10204 10206 10210 10210 10211 10205 10199 10204 10212 10213 10216 10217 10218 10221 10226 10231 10236 10243 10248 10257 10263 10270 10279 10291 10302 10316 10329 10342 10357 10373 10388 10406 10419 10435 10449 10464 10478 10492 10505 10517 10528 10538 10547
10190 10189 10194 10198 10201 10199 10194 10191 10197 10205 10206 10208 10211 10213 10218 10223 10228 10233 10240 10248 10255 10262 10271 10280 10292 10304 10318 10332 10343 10357 10372 10390 10405 10420 10434 10447 10461 10476 10490 10502 10515 10525 10535 10544
10175 10178 10183 10187 10189 10188 10187 10185 10192 10199 10199 10203 10205 10208 10213 10219 10225 10231 10240 10247 10254 10264 10271 10281 10291 10302 10315 10327 10344 10360 10375 10393 10407 10420 10433 10446 10461 10475 10488 10501 10512 10522 10532 10541
10164 10170 10169 10177 10179 10179 10179 10177 10186 10192 10193 10197 10201 10205 10210 10216 10223 10230 10238 10246 10255 10263 10271 10282 10294 10308 10321 10338 10345 10359 10374 10393 10406 10420 10434 10448 10460 10473 10487 10499 10509 10520 10530 10538